LFRH

Lorient South Brittany (Bretagne Sud) Airport

Airport
ICAO code
LFRH
IATA Code
LRT
Summary
ICAO Region
EUR
ICAO Territory
Location

Ploemeur, Bretagne

Serving
Morbihan
Elevation
160 ft
Coordinates
47° 45' 38" N , 3° 26' 24" W
Metar
LFRH 142130Z AUTO 34004KT CAVOK 08/06 Q1023 NOSIG

Runways

Designator Length Width Surface Rops
2/20 1670 45 CON Yes/Yes
7/25 2403 45 CON Yes/Yes

Airport map

Aerial View

Airport accidents

SKYbrary Partners:

Safety knowledge contributed by: